Terug naar catalogus

STARLINK-33621

ActiefCommunicatieVLEO
NORAD 63375·PAYLOAD·🇺🇸 United States

Gelanceerd Mar 26, 2025 vanaf Vandenberg Space Force Base

Loading…

Volgende Passages (komende 24 uur)

TLE

VersSource: CelesTrak SupGP

Epoch: Sep 15, 2026, 02:25 UTC

1 63375C 25063N   26258.10118056 -.00028463  00000+0 -84088-3 0  2588
2 63375  53.1577 246.7185 0001364  87.9271 250.3151 15.34407134    15

Volg STARLINK-33621 in realtime met AllMySat

Download on the App Store